Regional Weather Roundup
Issued by NWS Grand Forks, ND

Home | Current Version | Previous Version | Text Only | Print | Product List | Glossary On
Versions: 1 2 3 4 5 6 7 8 9 10 11 12 13 14 15 16 17 18 19 20 21 22 23 24 25 26 27 28 29 30 31 32 33 34 35 36 37 38 39 40 41 42 43 44 45 46 47 48 49 50
000
ASUS43 KFGF 130710
RWRFGF
PRAIRIE TO PINES  WEATHER ROUNDUP
NATIONAL WEATHER SERVICE EASTERN NORTH DAKOTA/GRAND FORKS ND
100 AM CST WED DEC 13 2017

 **SATELLITE DATA USED TO AUGMENT SKY COVER AT AUTOMATED STATIONS**
 *****  WEATHER ACROSS EASTERN NORTH DAKOTA  *****

CITY           SKY/WX    TMP DP  RH WIND       PRES   REMARKS
GRAND FORKS    RAIN      36  33  89 NW18G26   29.43R
GRAND FRKS AFB LGT RAIN  36  33  90 N16G23    29.44R
GRAND FRKS NWS   N/A     34 N/A N/A N12         N/A
DEVILS LAKE    MIX PCPN  35  33  92 NW21G30   29.51R WCI  24
FARGO          MOCLDY    32  28  85 S6        29.38F
WAHPETON ARPT  FAIR      28  23  80 W3        29.41S
$$

 ***** WEATHER ACROSS CENTRAL AND WESTERN NORTH DAKOTA  *****

CITY           SKY/WX    TMP DP  RH WIND       PRES   REMARKS
BISMARCK       FAIR      45  30  55 NW28G41   29.65R
MINOT          MOCLDY    40  30  67 W29G36    29.63R
JAMESTOWN      MOCLDY    41  29  62 NW25G35   29.48R
MINOT AFB      FAIR      38  29  70 NW25G32   29.62R
GARRISON         N/A     40  30  67 NW29G36   29.66R
WILLISTON      FAIR      40  27  59 NW28G39   29.81R
DICKINSON      FAIR      42  25  50 NW28G40   29.76R
HETTINGER      MOCLDY    44  23  43 NW30G43   29.81R
$$

 *****  OTHER AIRPORT OBSERVATIONS IN OUR AREA  *****

CITY           SKY/WX    TMP DP  RH WIND       PRES   REMARKS
WALHALLA       FAIR      34  34 100 N18G25    29.48R WCI  23
GRAFTON AIRPOR FAIR      34  30  86 N24G32    29.45R WCI  21
VALLEY CITY AR CLOUDY    39  30  70 NW18G29   29.45S
CANDO          CLOUDY    36  36 100 NW17G23   29.54S
CAVALIER APRT  FAIR      30  27  86 N20G26    29.46R WCI  18
GWINNER          N/A     43  27  52 NW18      29.44R
SHEYENNE NWR     N/A     41  28  60 NW14      29.95S
ROLLA          FAIR      34  32  93 NW25G31   29.53R WCI  21
 ***** THE ABOVE OBSERVATIONS ARE NON NWS ARE NOT QUALITY
       CONTROLLED AND MAY MIS-REPORT RAIN FOR SNOW...
$$

  *****  WEATHER ACROSS NORTHERN MINNESOTA  *****

CITY           SKY/WX    TMP DP  RH WIND       PRES   REMARKS
FLAG ISLAND    FLURRIES  12  10  92 NE6       29.50R WCI   3
WARROAD        CLOUDY    18  14  86 NE12      29.45S WCI   5
ROSEAU         CLOUDY    19  16  86 NE10      29.44S WCI   8
HALLOCK        FAIR      27  25  93 NE6       29.42S WCI  20
THF RVR FALLS  CLOUDY    33  29  85 W9        29.39R
BAUDETTE       CLOUDY    15  13  91 E10       29.45R WCI   2
WASKISH        CLOUDY    18  16  93 SE6       29.41F WCI   9
CROOKSTON      MIX PCPN  34  30  86 NW10      29.41F
STEPHEN NDAWN    N/A     30  27  86 N8          N/A  WCI  23
GREENBUSH NDAW   N/A     21  18  86 NE12        N/A  WCI   9
$$
  *****  WEATHER ACROSS CENTRAL AND WEST MINNESOTA  *****

CITY           SKY/WX    TMP DP  RH WIND       PRES   REMARKS
FOSSTON        CLOUDY    30  28  93 SW8       29.38F WCI  23
BEMIDJI        FLURRIES  21  20  93 S13       29.35F WCI   9
PARK RAPIDS    MIX PCPN  21  18  88 E5        29.40F WCI  15
ELBOW LAKE     FAIR      28  26  91 S7        29.39F WCI  21
WADENA         FAIR      25  25 100 E5        29.39F WCI  19
DETROIT LAKES  FAIR      30  28  93 CALM      29.38F
MOORHEAD       FAIR      30  27  86 CALM      29.38F
FERGUS FALLS   FAIR      30  27  86 CALM      29.41F
MORRIS MN      FAIR      27  25  93 S3        29.39F
STAPLES        MOCLDY    19  18  93 SE3       29.41F
$$
  *****  WEATHER ELSEWHERE ACROSS MINNESOTA  *****

CITY           SKY/WX    TMP DP  RH WIND       PRES   REMARKS
DULUTH         CLOUDY    14  13  95 SE12      29.52F WCI   0
INTRNTL FALLS  CLOUDY    14  10  84 E9        29.49F WCI   2
ELY            CLOUDY    14  10  85 SE13      29.52F WCI   0
CLOQUET        CLOUDY    12   9  85 E7        29.51F WCI   2
WHEATON        FAIR      39  27  60 W13       29.42F
BRAINERD       CLOUDY    22  18  85 SE6       29.45F WCI  14
HIBBING        CLOUDY    12  10  92 SE12      29.49F WCI  -2
ALEXANDRIA     FAIR      32  26  78 SW9       29.39F WCI  24
SAINT CLOUD    MOCLDY    24  22  91 MISG      29.45F
MINNEAPOLIS    MOCLDY    26  24  92 SE8       29.51F WCI  18
$$

  *****  WEATHER ACROSS SOUTH DAKOTA  *****

CITY           SKY/WX    TMP DP  RH WIND       PRES   REMARKS
SIOUX FALLS    FAIR      35  24  64 SW5       29.53F
BROOKINGS        N/A     38  25  59 MISG        N/A
WATERTOWN      FAIR      39  26  59 W18       29.44F
HURON          FAIR      49  21  33 NW25G37   29.53F
SISSETON         N/A     45  25  45 W23G31    29.41F
ABERDEEN       FAIR      46  23  40 NW14      29.51S
MITCHELL       FAIR      45  23  42 W16       29.58F
PIERRE         FAIR      53  24  32 NW31G45   29.66F
MOBRIDGE       MOCLDY    50  27  40 NW30G48   29.59R
RAPID CITY     FAIR      51  16  24 NW31G43   29.89S
$$

  *****  SOME WEATHER IN NEARBY STATES *****

CITY           SKY/WX    TMP DP  RH WIND       PRES   REMARKS
GLASGOW MT     FAIR      39  24  55 NW17      30.01R
GREAT FALLS MT FAIR      31  10  41 W8        30.25R WCI  23
CHEYENNE WY    FAIR      44   5  20 W18       30.08S
SCOTTSBLUFF NE FAIR      37  15  40 NW12      30.02R
OMAHA NE       FAIR      29  22  75 SE8       29.72F WCI  21
DES MOINES IA  FAIR      30  23  75 S10       29.71F WCI  21
DAVENPORT IA   CLOUDY    27  10  49 S9        29.83F WCI  18
CHICAGO IL     CLOUDY    22   9  57 S5        29.87F WCI  16
EAU CLAIRE WI  CLOUDY    20  12  71 SE7       29.61F WCI  11
LA CROSSE WI   MOCLDY    26  17  68 S12       29.66F WCI  16
$$

  *****  SOME NATIONAL WEATHER *****

CITY           SKY/WX    TMP DP  RH WIND       PRES   REMARKS
LA GUARDIA NY  FAIR      27   6  41 NW29G35   29.51R WCI  11
RALEIGH NC     FAIR      29   8  41 NW7       29.85R WCI  22
ATLANTA GA     FAIR      33  15  47 NW15G25   30.01R WCI  23
NEW ORLEANS LA FAIR      43  39  86 N3        30.17S
OKLAHOMA CITY  FAIR      37  26  64 S12       30.02F
ALBUQUERQUE NM FAIR      36   3  25 SE3       30.27F
SALT LAKE CITY SNOW      24  23  96 SE5       30.41F VSB 1/2 WCI  18
LOS ANGELES CA FAIR      62  28  27 VRB3      30.04S
BOISE ID       CLOUDY    23  20  88 NE5       30.51F WCI  17
SEATTLE WA     CLOUDY    42  34  73 NE9       30.42R
$$

*** WEATHER ACROSS MANITOBA...SASKATCHEWAN AND ONTARIO ***
                ***ONTARIO***

CITY           SKY/WX    TMP DP  RH WIND       PRES   REMARKS
GERALDTON      CLOUDY   -18 -24  76 CALM      29.79F
THUNDER BAY    FLURRIES   5   3  92 CALM      29.75F
SIOUX LOOKOUT  NOT AVBL
TORONTO        MOCLDY    10   5  79 NW9       29.62R WCI  -2
BIG TROUT LK   MOCLDY   -18 -24  76 E3        29.81F
PICKLE LAKE    NOT AVBL
DRYDEN         LGT SNOW   9   5  85 E6        29.53F WCI  -1
KENORA         FLURRIES  10   9  92 E9        29.50S WCI  -2
$$
                *** MANITOBA***

CITY           SKY/WX    TMP DP  RH WIND       PRES   REMARKS
BRANDON        PTCLDY    32  28  86 NW18G25   29.55R WCI  20
DAUPHIN        CLOUDY    30  27  86 N10       29.62R WCI  21
ISLAND LAKE    FLURRIES   3  -2  78 E8        29.69S WCI -10
PILOT MOUND      N/A     34  28  80 N15         N/A  WCI  24
THE PAS        CLOUDY    25  23  93 N17       29.68R WCI  11
THOMPSON       LGT SNOW   5   1  85 NE7       29.74R FOG     WCI  -7
WINNIPEG       CLOUDY    19  18  93 N10       29.53R FOG     WCI   8
LYNN LAKE      FLURRIES   7   3  85 NW6       29.76R WCI  -3
CHURCHILL      ICE FOG  -17 -22  76 W7        29.94R VSB 3/8 WCI -33
GILLAM         CLEAR    -17 -22  76 E5        29.84R WCI -29
$$
                ***SASKATCHEWAN***

CITY           SKY/WX    TMP DP  RH WIND       PRES   REMARKS
ESTEVAN        PTCLDY    36  30  80 NW23G31   29.74R
KINDERSLEY     CLEAR     32  27  80 NW7       30.06R
LLOYDMINSTER   CLEAR     30  25  80 W9        30.03R WCI  22
PRINCE ALBERT  CLEAR     32  27  80 NW14G21   29.88R WCI  22
REGINA         CLEAR     34  28  80 NW18G26   29.84R WCI  23
YORKTON        PTCLDY    32  28  86 NW16G22   29.69R WCI  21
N. BATTLEFORD  CLEAR     32  27  80 W14G20    30.01R WCI  22
LA RONGE       FLURRIES  32  30  93 W10       29.84R WCI  24
SASKATOON      PTCLDY    32  27  80 NW16      29.94R WCI  21
SWIFT CURRENT  CLEAR     34  25  69 NW20G28   29.99R WCI  22
$$
NOTE: THESE ARE AUTOMATED STATIONS WITH LIMITED QUALITY CONTROL
      "FAIR" INDICATES FEW OR NO CLOUDS BELOW 12,000 FEET WITH NO
      SIGNIFICANT WEATHER AND/OR OBSTRUCTIONS TO VISIBILITY.
      SKY/WX - SKY CONDITION AND SIGNIFICANT WEATHER.
      TMP - AIR TEMPERATURE.    DP   - DEWPOINT TEMPERATURE.
      RH  - RELATIVE HUMIDITY.  PRES - PRESSURE.
      HX  - HEAT INDEX.         WCI  - WIND CHILL INDEX.
$




USA.gov is the U.S. government's official web portal to all federal, state and local government web resources and services.